Wind_Speed
95 94 95 95 95 96 97 98 98 96 95 95 95 96 98 99 98 98 98 99 100 100 101 102 102 101 100 100 101 102 103 104 105 106 107 107 107 108 108 108 109 109 110 110 111 110 110 110 111 111 112 112 113 114 114 114 114 114 115 116 116 116 115 113 110 107 105 105 104 103 102 103 104 106 107 108 110 112 114 114 114 111 107 104 100
101 100 98 98 99 100 100 100 101 100 99 99 99 100 103 104 105 105 105 105 106 106 107 107 107 105 104 103 104 105 106 107 108 108 109 110 110 111 111 112 112 113 113 113 113 114 114 115 114 114 114 114 114 115 116 117 117 118 118 118 118 118 116 113 110 106 103 103 103 104 104 106 107 108 109 110 112 113 114 113 112 108 104 100 97
105 106 104 102 102 104 104 104 104 105 106 105 105 106 107 108 110 110 111 111 111 111 112 112 111 110 110 110 110 109 110 111 111 111 112 112 113 113 114 115 116 116 116 116 116 117 117 117 116 115 115 115 116 117 118 120 120 120 120 120 119 118 116 112 109 105 102 100 101 103 104 107 109 111 112 113 114 113 112 110 106 102 98 96 93
108 110 109 106 104 105 106 107 109 111 111 111 110 110 111 111 112 113 114 115 115 115 115 115 115 115 115 114 114 113 113 113 113 113 114 114 114 115 116 116 117 118 118 118 118 118 117 118 117 117 117 118 119 121 121 121 121 121 121 121 119 117 114 111 108 105 102 100 100 102 103 105 108 111 112 113 113 111 109 105 101 97 94 92 91
110 111 110 107 105 105 105 108 111 113 114 114 114 113 113 114 114 114 116 117 118 118 118 117 117 117 116 115 115 115 114 114 114 114 115 115 116 116 116 116 117 117 118 118 118 118 119 119 119 119 120 121 122 122 122 120 120 121 121 120 118 115 112 110 108 105 103 101 100 101 102 103 105 107 109 109 108 106 104 101 97 94 92 91 90
109 110 110 109 107 106 106 107 109 110 112 114 115 115 115 115 115 115 117 118 119 118 118 119 118 117 116 116 115 114 114 113 113 114 114 115 116 116 116 116 116 116 116 116 116 117 118 118 119 120 121 122 123 122 121 120 120 120 119 117 114 112 110 108 107 105 104 102 100 99 98 99 99 100 103 104 102 99 97 96 95 95 93 92 91
107 107 108 109 109 108 109 109 110 110 112 113 114 116 116 116 116 116 118 119 120 119 119 119 118 116 115 114 112 110 110 109 108 109 109 110 111 111 111 112 113 114 114 114 114 115 116 117 119 121 122 122 121 120 119 119 118 117 115 113 112 110 108 106 105 104 102 101 99 97 95 94 94 96 97 98 97 95 93 91 92 95 96 94 93
106 106 106 107 108 109 110 111 112 112 113 114 115 116 117 117 118 119 120 121 121 120 119 118 117 115 113 110 108 106 104 101 100 101 102 104 105 104 104 105 107 109 110 111 112 113 114 115 116 117 117 117 116 116 115 115 113 112 112 111 109 107 105 104 103 102 100 97 95 93 92 92 93 94 94 94 93 92 92 90 90 92 94 94 94
104 104 104 105 106 108 110 111 112 113 115 116 117 118 119 120 121 121 121 121 119 118 117 116 115 113 110 108 107 106 104 101 99 100 101 103 104 105 105 105 105 106 106 107 108 109 111 112 112 112 112 112 111 110 110 109 109 109 108 107 105 104 102 101 99 98 96 93 91 91 91 92 94 94 93 93 93 91 91 92 90 90 92 92 93
102 102 103 103 105 108 109 110 112 113 116 118 119 120 122 122 122 121 120 118 117 115 114 113 112 111 109 109 109 109 108 107 106 106 107 109 110 110 110 110 110 109 108 108 109 109 110 109 109 109 108 107 106 106 105 106 106 106 105 103 102 100 99 97 95 94 92 90 90 91 92 93 95 94 93 93 93 92 92 92 91 90 91 90 92
99 100 100 102 104 107 109 110 111 112 114 117 119 120 121 122 122 120 116 114 113 113 112 111 109 108 108 108 109 109 108 109 110 111 114 115 116 116 116 116 115 114 112 112 111 110 108 106 105 104 103 103 103 102 102 102 102 101 99 99 98 97 95 94 93 91 90 90 91 92 93 94 94 94 94 93 93 93 93 92 91 91 91 90 90
102 100 100 100 101 103 104 106 107 108 111 114 116 118 119 120 119 117 113 111 109 109 109 108 106 105 105 105 106 106 107 109 111 114 117 118 118 118 118 117 116 114 112 110 109 107 105 103 101 100 100 100 99 99 98 97 96 95 95 95 95 94 93 92 91 91 90 91 92 93 94 94 94 94 94 93 93 93 93 92 92 91 91 90 89
110 107 104 102 100 98 99 100 101 103 104 105 107 109 110 112 112 111 110 109 108 107 106 106 105 104 104 104 105 106 109 111 115 117 118 118 117 116 116 115 112 110 108 106 104 102 101 99 98 97 97 96 95 94 94 93 93 94 94 94 93 93 92 91 91 91 91 92 92 92 93 93 93 93 93 93 93 92 92 91 91 92 91 89 88
117 115 112 108 104 101 99 98 98 97 98 98 100 102 103 104 106 106 107 108 109 109 109 108 107 105 106 107 109 111 114 117 120 120 117 115 114 114 113 112 110 108 106 104 102 100 100 99 99 97 96 94 93 93 92 92 93 93 93 93 92 92 92 92 92 92 92 92 91 91 91 91 91 91 91 91 92 91 90 89 89 91 90 88 87
119 118 117 115 112 109 106 103 102 101 101 103 104 105 104 105 106 107 107 109 111 112 113 111 110 110 111 112 114 117 120 123 122 118 113 111 112 113 112 111 110 108 106 104 102 101 101 101 100 98 96 95 94 93 92 93 93 93 93 92 92 92 93 93 93 92 92 91 90 89 89 89 89 89 88 88 89 89 87 86 86 88 87 84 85
119 118 117 117 117 116 114 112 111 111 111 111 111 110 108 109 110 110 111 112 115 116 117 117 117 117 117 118 120 123 125 124 119 113 109 109 112 113 113 112 111 110 108 105 103 103 102 101 100 98 97 96 95 94 94 94 93 93 93 93 93 93 93 94 94 93 91 90 89 89 89 88 88 87 86 85 86 86 84 82 84 86 84 82 82
119 119 118 118 119 119 119 119 119 118 118 118 117 116 115 114 114 116 118 119 121 122 124 124 124 122 121 122 125 126 124 119 113 110 109 110 112 113 114 113 112 111 109 106 104 104 103 101 100 99 98 97 96 96 96 94 93 94 95 94 93 93 94 94 93 92 91 89 88 87 87 87 86 85 84 83 83 83 82 80 81 83 83 82 82
119 119 119 119 120 121 122 122 123 124 124 124 124 124 123 122 121 122 124 125 126 126 127 127 126 124 123 124 125 124 119 113 111 110 110 110 111 113 114 114 113 111 109 107 106 105 104 102 102 101 99 98 98 98 98 96 95 96 96 95 94 93 93 93 92 91 90 88 86 84 84 84 83 82 82 81 81 82 81 80 80 81 81 82 82
119 119 119 119 119 121 122 124 126 128 129 131 132 132 131 129 127 127 128 129 129 129 130 130 128 127 126 125 123 119 114 111 109 109 109 110 111 113 114 113 112 111 109 107 106 105 105 104 103 102 100 100 101 101 100 98 98 98 97 96 95 94 93 92 91 90 89 87 84 83 82 81 80 80 79 79 80 80 80 81 81 81 80 80 82
115 115 115 115 116 117 118 120 123 126 129 131 133 133 133 132 131 131 132 132 133 133 133 132 130 127 124 121 118 115 112 110 109 108 109 110 111 112 113 113 113 112 110 107 106 106 106 105 104 103 102 102 103 103 102 101 100 99 98 97 96 95 93 91 90 88 87 85 84 82 81 80 78 78 77 77 78 78 78 79 80 81 80 79 80
109 109 109 109 110 110 112 113 116 118 122 124 127 129 130 130 130 130 130 130 130 129 128 126 124 122 119 117 115 113 111 110 108 109 110 111 111 112 113 113 113 112 110 108 107 107 107 106 105 104 103 104 105 105 104 103 101 100 99 98 96 94 92 90 88 87 85 84 83 82 80 78 77 76 76 76 76 77 77 77 78 80 80 80 80
106 106 106 106 105 105 106 107 109 112 114 117 119 121 123 124 123 123 122 122 120 119 118 117 116 116 115 114 114 113 112 110 109 110 111 112 112 112 112 113 113 112 110 108 108 108 107 107 106 105 105 105 106 106 105 104 102 100 99 98 96 93 91 88 87 86 85 84 83 81 80 77 76 75 75 75 75 75 75 75 76 78 80 81 82
105 104 104 104 104 103 103 103 104 106 108 110 112 114 115 116 116 115 114 113 112 112 112 112 112 112 112 113 114 114 114 112 111 111 113 113 113 112 112 114 114 112 111 109 108 108 107 107 106 106 105 106 106 106 105 103 102 100 99 98 96 93 91 88 86 85 85 84 82 81 79 76 75 75 74 73 73 73 74 74 76 78 79 80 82
103 103 103 103 103 102 102 102 102 103 105 107 108 108 109 109 110 110 109 108 108 108 109 110 110 110 111 112 114 115 115 114 113 113 114 115 113 112 112 114 114 113 111 110 109 108 107 107 107 106 106 106 106 106 105 104 103 102 100 99 97 95 93 90 88 86 85 83 82 80 78 76 74 73 72 72 72 73 73 74 76 78 80 80 82
99 100 100 101 102 102 101 101 101 102 104 106 106 106 105 105 106 107 107 107 107 107 108 109 110 111 111 112 113 114 115 115 114 114 114 114 113 112 112 113 112 111 110 109 108 107 107 107 107 107 106 106 106 106 106 105 104 103 101 100 98 97 95 93 91 88 86 84 81 79 77 76 74 73 72 71 72 73 74 74 76 79 81 82 83
97 98 99 100 101 101 101 101 101 102 104 105 105 105 104 104 104 105 106 107 107 108 108 108 109 110 111 112 113 113 114 114 113 113 112 112 111 110 110 110 110 109 108 107 107 107 107 107 106 106 107 107 107 107 107 106 105 103 102 100 99 98 97 96 94 92 89 86 83 79 77 75 73 72 71 71 72 74 74 74 76 79 82 84 84
96 97 98 100 100 100 99 100 100 102 104 105 105 105 104 104 104 105 105 106 107 107 107 107 108 108 109 109 110 111 111 111 110 109 108 108 109 108 107 107 107 106 105 106 107 107 107 106 105 106 107 108 108 108 107 106 106 104 103 101 99 98 97 96 96 94 91 88 85 81 78 75 73 71 71 71 73 75 75 76 77 79 82 86 87
96 96 97 99 99 99 98 98 99 101 103 104 104 104 104 103 103 104 104 105 105 104 104 105 105 106 106 106 106 106 106 106 105 105 105 106 107 106 104 104 104 103 104 106 107 107 106 105 105 106 107 108 108 108 108 107 107 105 104 102 100 98 96 96 95 94 91 89 86 83 79 76 73 72 71 72 74 76 77 78 79 81 84 86 88
95 95 96 97 99 99 98 97 97 99 100 101 102 102 102 102 102 102 102 103 103 102 102 102 101 102 102 103 103 103 103 103 103 103 103 104 105 104 103 102 101 101 103 105 106 106 106 106 106 107 107 109 109 109 108 108 107 106 105 103 100 97 95 94 93 93 91 89 86 83 79 76 74 73 73 74 75 76 78 80 81 84 86 87 88
94 93 93 95 98 100 99 97 96 97 98 99 99 100 100 100 100 100 100 100 100 100 101 100 99 99 100 100 100 101 101 101 101 101 101 102 104 104 103 101 100 101 102 104 105 106 107 107 107 108 109 110 110 109 108 108 107 106 105 102 99 97 95 93 92 90 90 88 85 82 78 75 74 74 74 74 75 77 80 82 84 86 86 87 89
93 91 91 94 98 101 101 98 96 96 97 98 98 97 97 98 97 97 98 98 98 98 99 99 99 99 99 100 100 100 100 100 99 100 101 102 103 103 102 101 101 101 102 103 105 107 109 109 110 110 110 111 110 110 109 108 107 106 104 102 100 98 96 93 91 89 87 86 83 80 77 74 73 73 74 74 75 77 80 83 86 87 87 88 90
90 89 89 91 96 100 101 99 96 96 97 97 97 96 96 96 96 95 96 96 96 97 97 98 99 99 98 99 99 99 99 99 99 100 101 101 102 102 102 102 102 103 104 105 107 109 111 112 112 112 111 111 111 111 110 109 108 106 105 103 101 98 95 93 91 89 86 84 82 79 77 74 73 73 73 74 75 77 80 82 84 86 87 89 92
88 87 87 88 91 96 99 99 97 96 96 97 97 96 96 95 95 95 95 95 95 95 96 96 97 98 98 98 98 98 98 98 99 100 100 100 101 101 101 102 104 104 105 106 108 111 112 113 113 112 112 112 112 111 111 110 108 107 105 103 101 99 97 95 92 89 86 83 80 78 76 74 73 72 73 74 76 77 79 81 83 85 87 89 90
85 84 85 86 88 90 93 95 96 96 95 95 96 96 96 96 96 96 95 93 93 93 94 96 96 97 96 96 96 96 97 97 98 99 99 99 100 100 100 102 103 103 105 107 109 111 111 112 111 111 111 112 112 112 112 110 109 107 105 104 102 100 98 96 92 88 85 82 79 77 74 74 73 73 73 75 77 78 79 81 83 85 87 87 87
82 82 83 85 86 86 87 89 92 93 93 94 94 95 96 96 97 96 95 93 92 92 93 94 95 95 95 94 94 95 95 96 97 98 98 98 98 99 99 100 101 103 105 108 108 109 109 110 109 109 110 111 112 112 111 110 108 107 106 105 103 102 99 95 91 87 84 81 79 76 75 74 74 74 74 76 76 77 79 81 83 86 86 85 81
82 80 81 82 84 84 83 84 86 89 90 91 92 93 94 95 96 96 95 93 92 91 92 93 94 95 94 93 93 94 94 95 96 97 97 97 98 97 97 98 101 104 106 106 106 107 107 107 107 107 108 109 110 111 110 109 107 106 105 105 103 101 97 93 89 86 83 81 78 76 75 75 75 75 75 76 76 77 79 81 83 84 84 80 76
81 81 80 81 82 83 81 81 82 85 87 88 88 90 92 94 95 95 94 92 91 90 91 92 93 94 93 91 91 93 93 93 94 95 95 96 96 95 97 99 103 105 104 104 104 105 105 105 105 106 106 107 108 108 108 107 105 105 104 103 101 98 94 90 87 84 82 80 78 77 76 75 76 76 76 76 76 78 80 82 82 81 78 74 71
81 81 81 81 82 82 81 80 80 81 84 85 86 87 89 92 94 94 93 92 91 89 89 90 91 92 91 90 90 91 91 90 90 90 91 92 94 95 98 101 102 102 101 101 102 103 103 103 104 104 104 105 105 105 105 104 103 102 100 99 97 94 91 88 85 83 82 80 79 77 76 76 76 77 77 77 77 78 80 81 80 77 72 68 67
81 81 81 81 81 81 81 81 80 80 81 83 84 86 87 90 91 92 92 92 91 89 89 89 89 89 89 88 89 89 89 88 87 88 89 91 94 96 98 98 98 98 99 100 101 101 102 102 103 102 102 102 102 102 102 101 99 98 97 95 93 91 88 86 84 83 81 80 79 77 76 76 76 77 77 78 78 79 79 78 76 72 66 62 62
79 80 80 81 81 80 80 80 80 80 80 81 83 84 86 87 89 90 91 91 90 89 88 87 87 87 87 87 87 88 88 87 87 88 91 93 95 95 95 95 96 97 98 99 100 100 100 100 101 100 100 99 98 98 98 97 96 95 94 93 92 89 86 84 83 82 81 80 79 77 76 76 76 76 77 79 79 79 78 75 71 67 62 59 60
76 77 78 79 79 79 79 79 80 80 81 81 82 83 84 85 87 88 88 88 88 87 86 86 85 85 85 85 86 87 88 88 89 90 92 93 94 95 95 95 96 97 98 98 98 98 97 97 97 96 96 95 95 95 95 94 94 94 93 92 91 88 85 83 82 81 80 80 79 78 76 75 75 76 77 78 79 79 76 71 66 62 60 59 60
73 74 75 77 77 78 78 78 78 80 80 80 80 81 82 83 84 84 85 85 85 85 85 85 84 84 84 85 86 86 87 89 90 91 92 93 94 95 96 96 96 96 96 95 95 94 93 93 93 93 93 93 94 94 94 94 94 94 93 91 89 86 84 82 81 80 80 79 79 77 76 75 74 75 76 77 77 76 72 67 64 61 59 59 60
72 73 74 74 75 75 76 76 77 78 78 78 79 79 79 80 80 81 82 82 83 84 84 84 84 85 85 85 85 86 87 89 90 90 91 93 94 94 95 95 94 93 93 93 92 92 92 91 91 91 92 92 93 93 94 94 94 93 92 89 87 85 83 82 81 80 79 78 77 76 75 74 73 74 75 75 75 73 69 64 62 61 59 58 59
71 71 72 73 73 74 74 74 75 76 76 77 77 77 77 78 78 79 80 81 82 82 83 84 84 85 84 84 85 86 88 88 89 89 90 91 92 92 92 92 91 91 91 92 92 91 91 91 90 90 91 91 92 93 93 93 93 91 89 87 85 84 83 81 80 79 77 76 75 74 73 73 73 73 73 73 72 70 66 62 60 60 59 58 58
69 69 70 70 71 72 72 73 74 74 75 76 76 76 76 77 77 78 79 79 80 80 81 82 82 82 82 84 85 86 87 87 88 88 89 90 90 90 89 89 90 91 91 92 91 90 90 89 89 89 90 91 92 92 92 91 89 88 86 85 84 83 82 80 79 77 75 73 72 71 71 72 72 72 71 71 70 67 64 61 59 59 59 58 58
67 67 67 68 69 70 70 71 72 73 73 74 75 76 76 77 77 77 77 78 78 79 79 79 80 81 83 84 85 86 86 87 87 88 88 88 88 88 88 89 90 90 90 90 89 88 88 87 88 89 89 90 90 89 88 87 86 85 85 84 84 82 81 78 76 74 72 71 70 69 69 71 71 70 69 68 67 65 63 61 59 59 58 57 56
63 64 64 65 65 66 67 68 69 70 71 72 73 73 74 75 75 76 76 77 77 78 78 79 81 82 83 84 84 84 85 86 86 86 87 86 87 87 87 88 88 88 87 86 86 85 86 86 87 87 88 87 87 86 85 84 84 84 83 83 82 80 78 75 73 72 70 69 68 68 69 70 70 69 67 66 65 64 62 60 59 59 59 57 54
60 61 61 62 63 63 64 65 66 67 68 69 70 71 72 73 74 75 76 76 77 78 79 80 81 81 81 82 82 82 83 84 84 84 85 85 85 85 85 85 85 84 84 83 83 83 84 84 85 85 84 84 83 83 82 82 82 82 81 80 78 76 74 73 71 70 69 68 68 69 70 70 69 67 65 64 63 62 61 60 59 59 59 57 53
58 59 59 60 61 61 62 63 64 65 66 67 68 69 71 72 73 74 74 75 75 76 77 78 78 78 79 79 79 80 80 81 81 82 82 82 82 82 82 82 82 81 81 81 81 81 82 81 81 81 80 80 80 80 80 80 80 79 77 76 75 73 72 71 70 69 68 68 69 70 70 70 68 65 62 61 61 60 59 58 57 57 57 55 51
56 57 57 58 58 59 60 61 62 62 63 64 65 66 67 68 69 70 71 71 72 73 73 74 74 75 75 76 76 77 77 78 78 78 78 78 78 79 79 79 79 79 79 79 79 79 78 78 78 77 78 78 78 78 78 77 76 75 74 73 72 72 72 70 69 68 68 69 70 70 69 68 66 63 60 59 58 57 57 57 55 54 54 53 49
53 54 54 55 56 57 58 58 59 60 61 62 63 64 65 65 66 67 67 68 68 69 69 70 70 71 71 72 73 73 74 75 75 75 75 75 75 76 76 76 76 76 76 76 76 76 75 75 76 76 76 77 76 76 75 75 74 73 73 72 71 71 71 69 69 69 69 70 70 69 67 66 63 60 58 57 56 55 55 54 52 52 52 50 46
Wind_Direction
264 265 266 267 267 266 265 265 265 266 267 268 268 268 268 268 268 268 268 268 269 269 271 271 272 272 273 273 274 275 276 276 276 276 276 277 278 278 278 278 278 278 278 279 279 280 280 281 281 282 282 283 283 283 283 283 283 284 284 284 285 286 286 285 284 283 282 282 281 281 280 279 279 279 279 279 279 280 281 282 283 284 284 283 282
263 264 264 265 265 266 266 265 266 267 267 268 268 268 267 267 267 268 268 268 269 270 271 272 272 272 272 272 273 274 275 275 275 275 275 276 277 277 278 278 278 278 278 279 279 279 280 280 281 281 282 282 282 282 282 282 282 282 283 284 285 286 285 284 283 283 282 282 282 281 280 280 279 279 279 279 279 280 281 282 282 283 282 281 280
262 262 262 262 262 263 264 265 266 267 268 268 268 268 267 267 266 267 268 269 270 271 272 272 272 272 272 273 273 273 274 274 275 275 275 275 275 276 277 277 277 277 278 278 278 279 279 280 280 281 281 281 281 281 281 281 281 282 284 285 286 285 284 283 283 283 282 281 281 281 281 280 280 280 280 280 280 281 281 282 281 281 280 279 278
261 262 261 260 260 260 261 262 263 264 266 267 268 268 268 267 267 267 268 269 270 271 271 272 272 272 273 273 273 273 274 274 274 274 275 275 275 275 276 276 276 277 277 277 278 278 279 279 280 280 280 280 280 281 281 282 283 284 285 285 285 284 283 282 283 282 281 280 281 282 281 280 280 280 281 281 281 282 283 282 281 280 279 277 276
261 262 262 261 260 259 259 260 261 262 263 264 266 267 267 268 268 268 268 269 270 270 272 272 272 272 273 273 273 273 274 274 275 275 275 275 275 275 276 276 276 276 276 277 277 278 278 279 280 280 280 280 280 281 282 283 283 284 284 284 284 283 282 282 282 282 281 280 280 282 282 281 280 280 280 280 281 282 282 282 282 281 279 277 276
261 261 262 262 261 260 259 260 260 261 262 263 264 265 266 267 268 268 268 269 269 270 272 272 273 273 273 273 274 274 274 275 276 276 276 277 277 277 277 277 277 276 276 277 277 278 279 279 279 280 280 280 281 282 282 282 283 283 283 283 282 282 282 282 281 281 281 281 281 282 283 283 281 280 280 280 280 281 280 281 282 281 279 277 276
261 260 259 259 260 259 259 259 260 260 261 262 262 264 265 266 266 266 267 268 269 270 271 272 273 274 274 275 275 276 276 276 277 277 278 278 278 279 279 279 279 278 277 277 277 278 278 279 279 279 280 280 281 281 282 282 282 282 282 281 281 281 281 281 281 281 281 282 282 283 283 283 281 280 279 279 280 280 280 279 279 279 278 278 277
260 259 258 258 258 258 259 259 259 260 261 261 262 262 263 264 264 264 265 266 268 269 271 272 273 274 274 275 276 276 276 276 277 277 277 278 278 279 280 280 280 280 279 278 278 278 278 279 279 280 280 280 281 281 281 280 280 280 280 280 281 281 280 280 281 281 282 283 283 283 283 283 282 280 280 280 280 280 280 279 277 277 277 278 278
261 260 258 258 257 257 257 258 259 260 260 261 261 262 263 263 263 264 265 266 267 269 271 272 273 274 273 273 273 273 274 274 275 276 276 277 279 279 279 279 279 279 279 278 278 279 279 279 279 280 280 281 281 280 279 279 279 279 279 280 280 280 281 281 282 282 283 284 284 284 284 283 282 282 282 282 281 281 280 279 278 277 276 277 277
262 261 260 259 258 258 257 258 259 260 260 261 262 262 263 264 264 265 266 267 268 269 270 272 272 272 271 270 271 272 273 274 275 276 278 279 280 281 281 280 280 279 279 279 279 280 280 279 279 279 280 280 279 278 277 277 278 278 279 279 280 281 282 283 283 283 284 285 285 285 284 283 283 283 282 282 282 281 281 280 280 279 278 277 276
263 262 262 261 260 260 259 259 260 260 260 261 262 262 263 264 265 265 266 268 269 270 269 270 270 270 270 271 272 275 277 279 281 282 283 283 284 284 283 283 282 282 282 282 282 282 281 280 279 279 278 278 277 276 276 277 278 279 280 281 282 283 283 284 284 284 285 285 285 285 284 283 283 283 283 282 282 281 281 281 280 279 278 277 276
267 264 264 265 264 263 263 262 261 262 262 263 263 264 264 265 266 267 267 268 269 269 269 269 270 272 274 276 278 280 282 284 285 286 286 286 286 285 284 283 283 283 283 283 283 282 282 281 280 278 277 277 277 277 278 279 280 281 282 283 284 284 285 284 285 285 286 287 286 285 285 284 284 284 283 283 282 282 282 282 281 280 278 277 276
271 269 269 269 268 266 266 265 264 265 265 266 266 266 267 266 266 266 266 267 269 271 272 273 274 276 279 281 282 284 285 286 287 287 287 286 285 284 283 283 283 283 284 283 283 283 283 283 283 281 280 280 281 281 282 283 284 284 285 285 285 285 285 285 286 287 287 287 286 286 285 285 285 285 284 284 283 283 282 282 281 280 279 278 276
272 273 273 273 272 270 269 269 269 269 270 271 272 272 271 270 269 269 270 271 274 276 277 277 278 280 281 282 284 285 286 286 286 286 286 285 284 283 283 284 284 284 285 285 286 286 286 286 286 285 284 284 284 284 284 285 285 285 285 286 286 286 286 286 287 288 287 287 286 285 285 285 284 284 284 283 283 282 282 281 280 280 279 278 277
270 271 273 274 274 273 273 273 273 273 274 274 274 274 273 273 272 272 273 275 276 277 278 279 280 281 282 283 284 285 285 286 285 285 285 284 284 284 284 285 285 285 286 286 287 287 287 287 286 286 286 286 285 285 286 286 286 286 286 287 287 287 288 288 288 288 288 287 286 285 285 284 283 283 283 282 281 281 280 280 279 277 277 276 275
268 269 270 271 272 273 274 275 275 275 274 274 273 272 272 272 273 274 275 276 277 278 279 280 280 281 282 283 284 284 284 284 284 284 284 285 285 285 285 285 286 286 286 287 287 287 287 286 286 286 286 286 286 287 287 286 287 287 288 288 288 288 289 288 289 289 289 288 287 286 286 285 284 283 282 281 280 280 279 279 277 276 275 273 272
266 266 267 268 269 270 272 273 273 273 273 273 273 272 272 272 273 274 275 275 276 276 277 278 278 280 281 282 283 283 283 283 283 284 284 284 284 284 285 285 285 285 286 287 287 287 286 286 286 286 286 286 287 287 287 287 288 289 288 288 289 289 289 289 290 290 290 290 289 288 287 286 285 284 283 282 281 280 279 278 276 275 274 273 271
263 264 264 265 265 266 267 268 269 270 270 270 270 271 271 271 271 272 272 273 274 275 276 277 278 279 281 281 282 281 281 281 282 283 283 283 283 283 283 283 284 284 285 286 286 286 286 286 286 286 287 288 288 288 288 288 289 289 289 289 289 290 290 290 291 291 291 290 289 289 288 287 286 285 284 283 281 280 278 277 275 275 274 273 272
261 262 263 263 264 264 264 265 266 266 267 267 268 268 269 269 270 271 272 273 274 275 276 277 278 279 280 280 280 279 280 280 281 281 282 282 282 282 282 282 283 283 284 284 285 285 286 286 286 287 288 289 289 289 289 289 289 289 289 290 290 290 290 291 291 291 291 290 290 289 289 288 287 286 285 283 281 280 279 277 275 274 273 272 272
261 262 262 262 263 263 263 263 263 264 264 265 266 267 268 269 270 270 272 273 273 274 275 276 277 278 278 278 278 278 279 279 280 280 280 280 280 280 281 281 282 282 283 284 284 285 285 285 286 287 288 288 288 289 289 289 290 290 290 290 290 290 290 290 291 291 290 291 290 290 289 289 288 288 286 284 283 281 280 278 276 275 274 272 272
261 261 262 262 262 262 262 262 262 262 263 264 265 266 267 268 269 270 271 271 272 273 274 274 275 276 276 276 277 278 278 278 278 278 278 278 278 279 280 280 281 282 282 283 283 283 284 284 285 286 287 287 288 288 289 289 289 290 290 290 290 290 290 290 290 290 290 290 290 290 290 289 289 289 287 286 284 283 281 280 278 277 276 275 274
259 260 261 262 262 262 262 262 262 263 263 264 264 265 266 267 268 269 270 270 271 271 272 273 273 274 275 276 277 277 277 277 277 277 277 277 278 278 279 280 280 281 281 282 282 282 282 283 284 285 285 286 287 287 288 288 289 290 290 290 290 291 291 291 290 290 290 290 290 290 290 290 289 289 287 286 285 283 282 281 280 279 279 278 277
258 258 259 260 261 262 262 262 263 263 263 264 264 265 266 267 267 268 268 269 270 271 271 272 272 273 274 275 276 276 276 276 276 276 277 277 277 278 279 279 280 280 280 280 280 281 281 282 283 284 285 285 286 287 288 289 289 290 290 291 292 292 292 291 291 291 291 291 291 290 290 289 289 288 286 285 284 283 282 282 281 281 280 279 279
257 257 258 258 259 260 260 261 262 262 263 263 264 264 265 265 266 267 268 268 269 270 271 271 272 273 273 274 274 275 275 275 276 276 276 276 277 277 278 278 278 279 279 279 280 280 281 282 283 284 285 286 286 287 288 289 290 291 292 292 293 294 293 293 292 292 292 292 291 291 290 289 288 287 286 285 284 283 282 282 282 281 280 280 280
257 257 257 257 257 258 258 259 259 260 261 261 262 263 263 264 265 266 267 268 269 269 270 271 271 272 272 273 273 274 274 274 275 275 275 275 276 276 276 276 277 277 278 279 279 280 281 282 283 284 285 286 286 287 288 289 290 291 292 293 293 294 294 293 293 293 293 293 292 291 290 289 288 287 286 285 284 283 282 282 282 281 279 279 280
259 259 258 257 257 256 256 256 257 258 258 259 260 261 262 263 264 265 266 267 268 268 269 269 270 270 271 271 272 272 272 273 273 274 274 274 274 275 275 275 276 277 278 278 279 280 281 282 283 284 285 285 286 287 288 288 289 290 291 292 293 293 293 293 293 293 293 293 293 292 290 289 288 287 286 285 284 283 282 281 281 280 279 279 279
260 259 259 259 258 257 256 256 256 256 257 258 259 260 261 261 262 263 264 265 266 267 267 268 268 269 269 270 270 271 272 272 273 273 273 273 274 274 275 275 276 277 278 278 279 279 280 281 282 283 283 284 285 286 287 288 289 290 291 291 292 292 291 291 291 291 292 292 293 292 291 289 288 287 287 287 285 284 282 281 280 279 278 278 278
260 259 260 260 259 259 257 256 256 256 256 257 257 258 259 260 261 262 262 263 264 265 265 266 267 267 268 269 270 270 271 272 273 273 273 273 274 275 275 276 277 277 277 277 278 279 280 281 281 282 282 283 284 285 286 287 288 289 290 290 291 291 291 291 291 291 291 292 292 292 291 290 289 288 288 288 287 285 283 281 280 278 277 277 277
260 259 260 260 261 260 259 258 257 257 257 257 257 257 258 258 259 259 260 261 262 263 264 264 265 266 267 268 269 269 270 271 272 272 273 274 275 275 275 275 275 276 276 276 277 278 279 279 280 280 281 281 282 283 284 285 287 288 289 289 290 291 291 291 291 291 291 291 291 291 290 290 290 289 289 288 287 285 283 281 279 278 277 277 277
261 260 259 260 261 261 260 259 259 258 258 258 257 257 258 258 258 258 258 259 259 260 262 263 263 264 265 266 267 268 269 270 270 271 272 273 274 274 275 275 275 275 275 276 276 277 278 278 279 279 280 280 282 283 284 285 286 287 288 289 290 291 292 292 291 291 291 291 291 290 290 290 290 290 289 288 288 287 284 282 279 278 277 277 277
263 261 260 260 260 261 261 260 259 259 259 259 258 258 258 258 257 257 257 258 258 259 260 261 262 262 264 265 266 266 267 268 269 269 270 271 272 273 274 275 275 275 275 275 275 276 277 278 278 279 280 281 282 283 284 285 286 287 288 290 291 292 292 292 292 291 291 291 291 290 290 290 290 289 288 288 287 287 285 282 279 278 278 278 277
264 262 261 260 260 261 262 262 260 259 259 259 259 259 259 258 258 257 257 257 257 258 258 260 261 261 262 263 264 265 266 266 267 267 268 269 270 271 272 272 273 273 273 274 274 276 277 277 278 279 280 281 282 283 284 285 286 287 289 290 291 292 293 293 293 292 292 291 291 291 291 290 289 288 287 287 286 285 283 281 280 279 278 278 277
265 264 262 261 260 261 262 263 262 261 260 260 261 261 261 260 260 259 258 257 257 257 258 259 260 261 261 262 263 264 265 265 266 266 267 267 268 269 270 271 271 272 273 273 274 275 276 277 278 279 280 281 282 283 284 285 286 288 289 290 291 292 293 293 293 292 292 292 291 291 291 290 289 288 287 286 284 283 281 280 279 278 277 277 278
266 265 264 262 261 260 261 262 263 262 262 262 262 262 262 262 261 261 260 259 258 258 258 258 259 260 261 262 262 262 263 264 265 266 266 267 267 268 269 270 270 271 272 272 273 274 275 276 277 278 279 280 281 282 283 285 286 288 289 290 291 292 293 293 292 292 292 292 292 291 291 290 289 288 287 286 284 283 282 280 279 278 277 277 278
265 264 263 263 262 261 260 260 262 263 263 263 263 263 263 263 263 263 262 261 260 259 259 259 259 259 260 260 261 261 261 262 263 264 265 266 267 267 268 269 270 270 270 271 272 273 274 275 277 278 278 279 280 282 283 284 286 287 289 290 291 291 292 292 292 292 292 292 292 292 291 290 289 288 287 286 284 283 282 281 279 278 278 279 280
265 264 263 263 263 262 261 260 260 261 262 262 262 262 263 263 263 264 264 263 262 261 260 260 260 260 260 260 260 260 260 261 261 262 263 264 266 267 268 269 269 269 269 270 272 273 274 275 276 277 278 279 280 281 283 284 286 287 288 289 290 290 290 291 291 292 292 292 292 292 292 291 289 288 287 285 284 282 281 279 278 278 279 281 283
265 264 264 263 263 263 262 260 260 260 261 261 261 261 262 263 263 264 264 264 263 262 262 261 261 261 261 261 261 260 260 260 261 262 263 264 265 266 267 267 267 268 270 271 272 273 274 275 276 276 277 279 280 281 283 284 285 286 287 287 288 289 289 290 291 292 292 293 293 292 292 291 290 288 287 286 284 282 281 279 279 279 281 283 284
264 264 263 262 262 262 262 261 259 259 259 260 260 259 260 261 262 263 264 264 263 263 262 262 262 262 262 262 262 262 261 261 262 263 264 265 266 266 266 267 268 270 271 272 273 274 275 275 276 277 278 279 280 281 282 283 284 285 285 286 287 288 289 290 291 292 292 293 292 292 291 291 290 289 287 286 284 282 281 280 280 281 283 285 285
262 262 262 261 260 260 260 260 259 258 258 258 258 258 258 259 260 262 263 263 263 263 262 262 262 262 263 263 263 263 263 264 264 265 266 266 265 266 266 268 269 271 272 272 273 274 275 276 277 277 278 279 280 281 282 283 283 284 285 286 287 288 288 290 291 292 292 292 292 291 291 290 290 289 287 285 283 282 281 280 281 283 285 286 285
261 261 261 261 261 260 260 260 259 258 257 257 257 257 258 258 259 260 261 262 262 262 262 262 262 262 262 263 263 264 265 265 265 265 265 265 266 266 267 268 269 270 271 272 272 273 274 275 276 277 278 279 280 281 282 283 284 284 285 286 287 287 288 289 290 291 291 291 291 290 290 290 289 288 287 285 283 282 281 281 283 286 287 286 285
260 261 261 261 261 261 260 260 260 260 259 258 258 258 258 258 259 259 260 261 261 261 261 261 261 261 261 262 262 263 264 265 265 265 265 266 267 268 268 269 269 270 271 271 272 273 274 275 276 277 278 279 280 281 282 283 284 285 285 286 286 287 288 289 290 290 290 290 290 290 290 289 288 287 285 284 283 282 283 284 286 287 288 287 285
259 259 259 259 260 260 260 260 259 259 259 259 258 258 258 258 259 259 260 260 260 260 260 260 260 260 260 260 261 261 262 263 264 265 265 266 267 268 269 269 270 271 272 273 273 274 275 276 276 278 279 280 281 282 283 283 284 284 284 285 286 287 288 289 289 289 289 289 289 289 289 288 286 285 284 283 283 283 284 286 288 289 288 287 285
260 259 259 258 258 258 259 258 259 259 259 258 258 258 258 258 259 259 259 260 260 260 260 260 260 260 260 261 261 262 262 263 263 264 265 266 267 268 269 271 272 273 274 274 275 275 275 276 277 278 279 280 281 282 282 283 283 283 284 285 286 287 288 288 288 287 288 288 288 288 287 286 285 284 283 283 283 284 286 288 289 288 288 286 284
261 260 260 259 259 259 258 258 258 258 259 259 259 259 259 259 259 259 259 259 259 260 261 261 262 263 263 264 264 264 264 264 265 266 266 267 268 269 271 272 273 274 274 274 274 275 275 276 277 278 279 280 280 281 281 282 282 283 284 285 286 286 287 286 287 287 287 287 287 286 286 285 284 283 282 283 283 285 287 289 289 288 287 286 284
261 260 260 260 259 259 259 259 258 258 259 259 259 259 260 260 260 260 260 260 260 261 262 262 263 264 264 264 264 265 265 266 267 267 268 269 270 271 272 272 273 273 273 273 274 275 276 277 277 278 278 279 279 280 280 281 282 283 284 285 285 286 286 285 286 286 286 286 286 285 285 284 283 282 282 283 285 287 289 289 288 287 287 286 284
260 260 259 259 259 259 259 259 259 259 259 259 259 260 260 260 261 261 261 261 262 262 262 262 263 263 262 262 263 264 265 266 266 267 268 268 269 270 271 271 271 271 272 273 274 275 276 276 277 277 277 278 278 279 280 281 282 284 284 284 284 284 284 285 285 285 285 285 285 284 284 283 282 282 283 285 287 288 289 289 288 287 286 284 283
261 261 260 260 259 258 258 258 258 258 259 259 259 260 260 260 260 260 261 261 261 261 261 261 261 261 261 262 263 263 264 265 265 266 267 268 268 269 269 270 270 271 272 273 274 274 275 275 275 276 276 277 278 279 281 282 282 282 282 282 283 283 284 284 284 284 284 285 284 284 283 282 282 283 285 286 288 289 289 289 287 286 284 282 280
262 261 261 260 260 259 258 258 257 257 257 257 257 257 258 258 258 258 259 259 259 259 260 260 261 261 262 263 263 263 264 264 265 266 267 267 268 268 269 269 270 271 271 272 272 272 273 273 273 274 276 277 278 279 280 280 280 280 281 281 282 282 283 284 284 284 284 285 284 283 282 281 282 284 285 286 287 288 288 287 286 284 282 281 279
263 262 261 261 260 260 259 259 258 257 257 257 257 257 257 257 258 258 259 259 259 260 260 261 262 262 262 263 263 264 264 265 265 266 267 267 267 268 268 269 269 270 270 270 271 271 272 272 273 275 276 277 278 278 278 278 278 279 280 281 281 282 282 283 283 284 284 284 282 281 281 281 282 284 285 286 286 286 285 284 282 281 279 278 278
262 262 261 261 260 260 260 259 259 259 258 258 258 258 258 258 258 259 259 259 260 260 261 261 262 262 263 263 264 264 264 265 265 265 266 266 266 267 267 268 269 269 269 270 271 272 273 274 275 276 276 276 276 276 277 277 278 279 279 280 281 281 282 282 283 283 282 281 280 280 280 281 283 284 285 285 284 284 282 281 279 277 276 276 276
262 261 260 260 259 259 258 258 258 258 257 257 257 257 258 258 258 258 259 259 259 260 260 261 261 261 262 262 263 263 264 264 264 265 265 266 266 266 267 267 268 269 270 270 272 273 274 275 275 275 275 275 276 276 277 277 278 278 279 280 280 280 281 281 281 280 280 279 279 279 280 282 283 284 284 283 282 281 280 278 276 274 274 274 273
Height
10544 10546 10547 10548 10550 10550 10548 10546 10544 10543 10544 10543 10542 10539 10535 10533 10532 10531 10531 10530 10527 10527 10526 10524 10523 10524 10523 10521 10518 10515 10513 10510 10508 10508 10507 10505 10504 10503 10503 10502 10501 10499 10498 10497 10495 10494 10493 10491 10488 10486 10484 10482 10480 10478 10475 10472 10469 10466 10462 10461 10457 10455 10455 10453 10453 10452 10443 10431 10430 10433 10433 10427 10420 10414 10411 10409 10404 10399 10396 10393 10389 10388 10387 10385 10380
10531 10533 10536 10537 10538 10537 10535 10534 10534 10533 10532 10531 10530 10526 10521 10518 10517 10517 10517 10515 10513 10513 10511 10509 10509 10509 10509 10507 10505 10502 10499 10496 10494 10492 10492 10491 10490 10488 10487 10486 10485 10484 10483 10482 10481 10479 10477 10476 10474 10472 10470 10468 10465 10462 10460 10456 10454 10451 10448 10447 10444 10440 10439 10437 10436 10436 10433 10422 10413 10414 10417 10414 10407 10398 10393 10393 10391 10386 10382 10379 10375 10374 10372 10370 10366
10518 10517 10521 10524 10524 10522 10522 10523 10522 10520 10518 10517 10515 10511 10506 10504 10503 10503 10502 10500 10500 10499 10496 10494 10494 10493 10493 10492 10491 10488 10484 10482 10480 10478 10477 10476 10475 10474 10473 10471 10470 10469 10468 10467 10465 10463 10462 10460 10459 10457 10455 10453 10450 10447 10444 10441 10438 10437 10435 10432 10429 10425 10422 10420 10419 10419 10420 10414 10402 10396 10398 10397 10391 10381 10373 10370 10372 10371 10368 10363 10361 10360 10358 10355 10352
10503 10501 10503 10507 10509 10509 10510 10510 10507 10505 10504 10501 10499 10495 10492 10490 10489 10488 10487 10486 10485 10483 10480 10479 10478 10477 10477 10477 10475 10472 10470 10468 10466 10464 10462 10460 10459 10458 10457 10456 10455 10454 10453 10452 10450 10448 10447 10445 10443 10441 10438 10436 10433 10430 10428 10426 10424 10422 10419 10416 10413 10410 10406 10403 10403 10402 10402 10401 10391 10381 10379 10380 10376 10366 10355 10351 10352 10352 10350 10347 10345 10344 10342 10339 10338
10485 10484 10485 10489 10493 10494 10494 10493 10492 10491 10488 10486 10483 10480 10477 10475 10475 10473 10471 10469 10469 10467 10465 10463 10462 10461 10461 10460 10459 10457 10456 10454 10452 10449 10447 10444 10442 10441 10441 10440 10439 10439 10438 10437 10436 10433 10431 10429 10426 10424 10422 10419 10417 10415 10413 10411 10409 10406 10403 10400 10397 10393 10390 10387 10385 10384 10383 10383 10378 10368 10361 10360 10359 10351 10339 10335 10337 10336 10331 10329 10329 10328 10326 10323 10323
10465 10466 10468 10472 10474 10476 10476 10475 10476 10475 10473 10471 10468 10465 10463 10462 10461 10459 10455 10452 10451 10451 10449 10447 10445 10444 10444 10443 10443 10442 10441 10440 10438 10435 10432 10428 10426 10425 10425 10424 10423 10422 10422 10422 10420 10418 10416 10413 10411 10408 10406 10405 10403 10401 10399 10397 10394 10390 10387 10385 10382 10378 10375 10371 10368 10366 10364 10362 10360 10354 10346 10341 10340 10335 10325 10320 10322 10322 10319 10317 10314 10309 10308 10309 10309
10445 10448 10451 10454 10456 10457 10457 10457 10457 10456 10456 10455 10452 10450 10449 10448 10446 10443 10439 10436 10436 10436 10434 10431 10429 10428 10428 10427 10427 10426 10425 10425 10424 10420 10417 10413 10410 10410 10410 10409 10408 10407 10407 10406 10405 10403 10401 10398 10396 10393 10392 10391 10389 10387 10385 10382 10379 10376 10373 10370 10366 10363 10359 10356 10352 10349 10346 10344 10340 10336 10332 10325 10320 10317 10312 10307 10307 10307 10307 10309 10305 10295 10290 10293 10293
10427 10430 10432 10436 10439 10439 10438 10437 10438 10438 10438 10437 10435 10434 10433 10431 10429 10427 10424 10423 10422 10421 10419 10417 10415 10414 10414 10413 10412 10410 10410 10410 10408 10405 10402 10397 10395 10396 10395 10394 10394 10393 10392 10391 10389 10388 10385 10383 10380 10378 10377 10376 10375 10373 10370 10367 10364 10361 10358 10355 10351 10348 10344 10340 10336 10332 10329 10327 10323 10318 10315 10309 10302 10299 10298 10295 10294 10294 10291 10293 10294 10288 10280 10278 10277
10409 10412 10414 10418 10421 10420 10418 10419 10420 10420 10419 10418 10417 10416 10414 10413 10411 10410 10409 10409 10409 10408 10406 10403 10401 10401 10400 10400 10398 10396 10395 10395 10393 10390 10386 10382 10380 10381 10380 10379 10378 10378 10377 10376 10374 10371 10369 10367 10365 10363 10362 10361 10359 10357 10354 10352 10349 10346 10343 10340 10336 10332 10328 10324 10320 10317 10313 10311 10307 10302 10299 10293 10286 10285 10285 10280 10279 10281 10278 10275 10277 10276 10272 10270 10266
10391 10393 10396 10399 10400 10399 10400 10402 10403 10402 10401 10400 10399 10398 10396 10395 10394 10394 10396 10396 10395 10395 10393 10390 10388 10387 10386 10385 10384 10382 10381 10378 10376 10373 10369 10366 10364 10363 10362 10360 10360 10359 10359 10358 10356 10354 10352 10351 10349 10348 10347 10346 10344 10342 10339 10337 10334 10331 10328 10324 10320 10316 10313 10309 10305 10301 10298 10296 10292 10287 10283 10278 10272 10270 10271 10268 10265 10265 10263 10260 10261 10261 10259 10259 10255
10373 10374 10377 10380 10380 10380 10383 10385 10386 10386 10385 10384 10382 10381 10379 10378 10378 10380 10382 10382 10380 10379 10377 10376 10375 10373 10371 10370 10369 10367 10365 10362 10359 10356 10352 10350 10349 10346 10344 10342 10341 10341 10341 10339 10338 10337 10335 10334 10334 10333 10332 10330 10328 10326 10324 10322 10319 10316 10312 10308 10304 10300 10297 10293 10290 10287 10284 10282 10278 10272 10267 10264 10260 10256 10255 10255 10253 10250 10247 10246 10246 10247 10245 10244 10243
10354 10357 10359 10361 10362 10364 10366 10368 10369 10370 10369 10367 10366 10364 10363 10363 10364 10365 10366 10366 10364 10363 10362 10361 10359 10357 10356 10355 10353 10352 10350 10347 10343 10339 10336 10334 10332 10329 10327 10325 10325 10325 10325 10323 10321 10320 10319 10318 10317 10317 10315 10314 10312 10310 10308 10306 10303 10300 10296 10292 10289 10285 10281 10278 10274 10272 10270 10267 10263 10257 10251 10249 10246 10241 10239 10239 10239 10235 10232 10230 10229 10229 10230 10228 10229
10333 10338 10343 10344 10346 10349 10350 10351 10353 10353 10351 10350 10349 10348 10347 10348 10349 10349 10348 10348 10347 10346 10345 10343 10342 10342 10340 10339 10338 10336 10333 10331 10327 10324 10322 10320 10316 10312 10309 10308 10309 10309 10308 10307 10305 10303 10302 10300 10299 10298 10297 10296 10295 10293 10291 10289 10286 10284 10281 10277 10274 10270 10266 10263 10261 10259 10256 10252 10249 10243 10236 10233 10231 10226 10223 10223 10222 10220 10216 10215 10213 10210 10212 10213 10212
10315 10319 10323 10325 10329 10333 10335 10337 10338 10338 10336 10334 10332 10332 10331 10331 10331 10331 10332 10331 10329 10328 10327 10327 10327 10327 10326 10324 10323 10321 10319 10315 10311 10309 10309 10306 10300 10295 10294 10292 10293 10292 10290 10289 10288 10287 10285 10283 10282 10281 10280 10279 10278 10277 10275 10273 10270 10268 10265 10262 10259 10255 10252 10249 10247 10245 10242 10237 10235 10230 10223 10218 10216 10213 10210 10207 10206 10205 10202 10201 10198 10193 10194 10198 10195
10301 10304 10307 10308 10309 10312 10316 10320 10323 10323 10322 10319 10317 10315 10315 10315 10315 10315 10316 10316 10314 10312 10311 10312 10313 10312 10311 10310 10309 10308 10305 10300 10296 10296 10295 10291 10284 10280 10278 10277 10276 10275 10274 10273 10272 10271 10269 10267 10266 10265 10264 10263 10262 10261 10259 10256 10254 10252 10249 10246 10243 10240 10237 10234 10232 10230 10226 10221 10219 10215 10210 10205 10201 10199 10196 10193 10191 10190 10189 10188 10183 10179 10183 10185 10179
10286 10289 10292 10293 10293 10294 10298 10302 10305 10307 10305 10303 10300 10299 10299 10299 10299 10299 10300 10300 10299 10297 10296 10296 10297 10297 10296 10296 10295 10293 10289 10284 10282 10283 10282 10278 10272 10266 10262 10261 10259 10258 10258 10258 10258 10256 10254 10252 10251 10250 10248 10247 10246 10245 10242 10240 10238 10236 10233 10231 10228 10226 10222 10219 10217 10213 10209 10206 10203 10199 10195 10191 10187 10185 10181 10178 10176 10175 10175 10173 10166 10163 10169 10171 10166
10269 10272 10276 10277 10278 10279 10282 10285 10288 10288 10288 10286 10284 10283 10283 10284 10284 10284 10284 10284 10283 10283 10282 10281 10282 10283 10283 10283 10281 10277 10274 10271 10270 10270 10269 10266 10261 10254 10249 10247 10245 10243 10243 10243 10243 10241 10239 10237 10236 10234 10232 10231 10230 10229 10226 10225 10224 10221 10218 10216 10214 10211 10207 10203 10201 10197 10193 10191 10188 10184 10180 10176 10173 10171 10166 10163 10161 10158 10160 10159 10151 10147 10151 10153 10150
10252 10255 10258 10261 10263 10264 10267 10270 10271 10270 10270 10269 10266 10266 10266 10268 10270 10270 10269 10269 10268 10268 10267 10266 10266 10268 10269 10268 10264 10261 10260 10259 10259 10257 10255 10252 10248 10241 10236 10233 10231 10230 10230 10229 10228 10226 10224 10222 10220 10218 10217 10216 10214 10212 10210 10210 10209 10206 10203 10202 10199 10196 10192 10189 10186 10182 10179 10176 10173 10169 10166 10161 10159 10157 10153 10149 10145 10142 10142 10141 10137 10134 10135 10134 10132
10234 10237 10240 10243 10246 10248 10250 10253 10254 10253 10252 10250 10249 10249 10250 10252 10254 10255 10254 10253 10253 10252 10251 10250 10251 10252 10253 10252 10249 10246 10246 10246 10246 10245 10242 10238 10234 10227 10222 10220 10218 10217 10216 10216 10215 10213 10210 10208 10205 10202 10202 10200 10198 10195 10194 10194 10193 10191 10188 10187 10184 10181 10178 10175 10172 10169 10165 10162 10158 10154 10150 10146 10144 10143 10139 10136 10131 10127 10125 10123 10120 10119 10119 10119 10115
10218 10220 10223 10226 10228 10230 10232 10234 10236 10235 10234 10233 10232 10232 10233 10235 10237 10239 10239 10238 10238 10237 10236 10236 10236 10236 10237 10236 10234 10233 10232 10232 10233 10232 10227 10223 10220 10214 10208 10206 10204 10202 10202 10202 10201 10199 10196 10193 10191 10189 10188 10186 10182 10179 10179 10178 10178 10176 10173 10171 10169 10167 10165 10162 10158 10155 10152 10148 10144 10140 10135 10131 10129 10127 10124 10121 10117 10113 10109 10105 10102 10101 10100 10102 10100
10202 10203 10205 10208 10210 10212 10214 10216 10217 10217 10217 10216 10216 10216 10217 10219 10220 10222 10222 10222 10223 10223 10222 10222 10221 10221 10220 10219 10219 10218 10217 10218 10218 10216 10211 10207 10206 10201 10195 10191 10189 10188 10188 10189 10187 10184 10182 10180 10178 10177 10175 10172 10168 10165 10164 10163 10163 10161 10158 10156 10154 10152 10150 10148 10144 10140 10138 10134 10130 10126 10122 10118 10116 10112 10108 10106 10102 10097 10094 10090 10086 10083 10081 10080 10081
10186 10187 10188 10189 10192 10194 10196 10198 10199 10200 10200 10200 10201 10201 10202 10203 10204 10205 10205 10206 10207 10208 10207 10207 10206 10206 10206 10204 10203 10202 10201 10202 10202 10200 10195 10192 10191 10188 10182 10177 10175 10175 10176 10176 10173 10170 10168 10166 10164 10164 10162 10158 10155 10152 10150 10149 10148 10146 10144 10142 10140 10138 10135 10133 10130 10126 10123 10119 10115 10112 10107 10104 10102 10098 10094 10091 10088 10083 10079 10076 10072 10068 10064 10061 10060
10169 10172 10173 10174 10175 10177 10179 10181 10183 10183 10183 10184 10185 10186 10186 10186 10187 10188 10189 10190 10192 10192 10191 10191 10191 10192 10191 10190 10188 10185 10183 10185 10186 10183 10179 10176 10176 10175 10170 10164 10161 10162 10162 10161 10158 10156 10154 10152 10150 10150 10148 10145 10142 10139 10136 10135 10133 10131 10129 10126 10124 10122 10120 10118 10115 10112 10109 10105 10101 10097 10093 10090 10088 10085 10081 10078 10074 10069 10066 10063 10058 10053 10049 10047 10042
10153 10157 10158 10159 10160 10162 10164 10165 10166 10167 10166 10166 10168 10169 10170 10171 10171 10171 10173 10175 10176 10176 10176 10175 10175 10176 10175 10174 10172 10169 10166 10167 10169 10168 10163 10160 10161 10162 10157 10150 10148 10148 10146 10145 10144 10142 10140 10138 10136 10135 10133 10130 10127 10124 10122 10120 10117 10114 10112 10110 10108 10106 10104 10102 10100 10097 10094 10090 10087 10083 10079 10076 10074 10071 10068 10065 10060 10056 10053 10049 10045 10039 10035 10033 10029
10136 10139 10141 10142 10144 10146 10148 10149 10150 10150 10149 10149 10151 10153 10155 10156 10156 10156 10156 10157 10159 10160 10161 10160 10159 10159 10158 10157 10156 10154 10151 10151 10152 10152 10149 10145 10146 10147 10144 10138 10135 10134 10132 10131 10130 10127 10126 10124 10122 10120 10117 10115 10112 10109 10107 10104 10101 10099 10097 10095 10093 10091 10089 10087 10084 10082 10079 10076 10073 10070 10066 10063 10060 10057 10054 10052 10047 10042 10041 10037 10032 10026 10020 10019 10017
10114 10117 10120 10122 10124 10127 10129 10131 10133 10133 10133 10134 10135 10137 10139 10142 10142 10142 10142 10142 10142 10143 10144 10145 10144 10143 10143 10141 10139 10137 10136 10135 10136 10137 10134 10131 10130 10131 10129 10124 10120 10120 10119 10118 10116 10113 10111 10110 10109 10106 10103 10100 10097 10094 10092 10089 10086 10085 10083 10081 10080 10078 10075 10073 10070 10067 10065 10062 10060 10057 10053 10050 10047 10043 10040 10038 10033 10028 10026 10025 10021 10014 10007 10004 10004
10093 10095 10098 10100 10103 10107 10110 10113 10115 10116 10117 10118 10120 10122 10124 10126 10127 10128 10128 10127 10126 10127 10127 10128 10127 10127 10126 10125 10123 10121 10120 10119 10120 10121 10118 10115 10113 10114 10114 10110 10106 10107 10107 10103 10100 10098 10097 10097 10096 10093 10089 10086 10083 10080 10078 10075 10072 10071 10069 10068 10066 10064 10061 10059 10056 10053 10051 10049 10046 10043 10040 10037 10034 10031 10027 10024 10019 10014 10011 10009 10007 10002 9995 9990 9989
10073 10076 10079 10081 10084 10088 10091 10094 10097 10098 10099 10102 10104 10106 10109 10110 10112 10113 10112 10110 10111 10112 10111 10111 10110 10109 10109 10108 10107 10107 10105 10105 10105 10103 10101 10099 10097 10098 10100 10097 10094 10094 10092 10087 10084 10084 10084 10084 10082 10079 10076 10072 10069 10066 10064 10062 10060 10058 10056 10055 10053 10051 10048 10045 10042 10039 10037 10035 10033 10030 10027 10024 10020 10017 10015 10010 10004 10000 9996 9993 9991 9987 9982 9977 9975
10055 10060 10062 10064 10066 10069 10071 10074 10077 10079 10081 10084 10087 10089 10092 10094 10097 10098 10097 10095 10096 10096 10094 10095 10095 10093 10091 10092 10092 10092 10091 10091 10089 10086 10085 10084 10082 10083 10085 10085 10083 10081 10078 10073 10070 10071 10071 10069 10067 10065 10062 10058 10055 10053 10051 10049 10047 10046 10044 10041 10039 10037 10034 10031 10028 10025 10022 10021 10019 10016 10014 10011 10007 10004 10001 9997 9991 9985 9980 9977 9974 9971 9967 9964 9961
10037 10043 10047 10048 10049 10050 10051 10054 10058 10060 10063 10066 10069 10072 10074 10077 10080 10081 10081 10081 10082 10081 10079 10079 10079 10078 10076 10077 10077 10077 10076 10076 10074 10072 10072 10070 10066 10066 10068 10069 10069 10068 10064 10060 10058 10056 10055 10053 10051 10049 10047 10044 10041 10040 10038 10036 10034 10032 10029 10027 10025 10023 10020 10017 10014 10011 10008 10006 10005 10002 10000 9998 9994 9990 9986 9983 9979 9973 9966 9961 9956 9954 9954 9951 9948
10021 10027 10030 10030 10031 10032 10033 10037 10041 10042 10045 10048 10051 10054 10057 10059 10061 10064 10064 10065 10066 10065 10064 10064 10064 10064 10064 10064 10064 10063 10062 10061 10060 10058 10056 10055 10053 10052 10053 10054 10053 10052 10050 10046 10043 10041 10039 10036 10034 10033 10031 10029 10027 10025 10023 10020 10018 10015 10013 10011 10010 10008 10006 10003 10000 9997 9994 9992 9990 9988 9987 9984 9981 9978 9974 9970 9967 9961 9953 9947 9942 9939 9939 9936 9932
10005 10012 10014 10013 10013 10014 10016 10020 10023 10025 10028 10030 10033 10036 10039 10041 10044 10046 10047 10048 10049 10049 10049 10050 10050 10050 10050 10050 10049 10049 10049 10048 10046 10043 10042 10041 10040 10039 10040 10039 10037 10036 10034 10031 10027 10024 10022 10018 10016 10016 10015 10013 10012 10010 10007 10005 10002 10000 9998 9996 9994 9993 9991 9988 9985 9982 9979 9978 9976 9973 9972 9970 9968 9965 9961 9956 9953 9948 9942 9935 9931 9927 9926 9922 9918
9986 9994 9997 9997 9998 9998 9999 10001 10004 10007 10010 10012 10014 10018 10021 10023 10026 10027 10028 10030 10033 10034 10035 10036 10035 10035 10035 10035 10035 10035 10034 10033 10031 10029 10028 10028 10026 10026 10026 10024 10021 10021 10020 10016 10011 10008 10005 10002 10001 10001 10000 9998 9996 9994 9991 9989 9987 9985 9983 9981 9979 9979 9976 9973 9970 9968 9965 9964 9962 9960 9958 9956 9953 9951 9948 9942 9938 9934 9930 9925 9920 9916 9913 9911 9909
9968 9975 9978 9979 9981 9983 9984 9985 9986 9988 9991 9994 9996 9999 10001 10004 10005 10007 10009 10013 10017 10019 10019 10019 10019 10020 10020 10020 10020 10020 10018 10017 10015 10014 10013 10013 10012 10012 10011 10008 10007 10007 10005 9999 9994 9992 9990 9988 9988 9987 9985 9983 9981 9978 9976 9974 9972 9971 9969 9967 9965 9963 9961 9959 9956 9954 9951 9949 9947 9946 9944 9942 9939 9937 9934 9929 9924 9920 9916 9911 9908 9904 9902 9901 9901
9951 9956 9959 9959 9961 9965 9969 9970 9970 9972 9974 9976 9978 9980 9981 9983 9984 9987 9991 9994 9997 10000 10001 10001 10002 10004 10005 10005 10006 10004 10003 10002 10000 9999 9998 9997 9997 9996 9995 9994 9994 9991 9985 9981 9979 9979 9977 9975 9975 9974 9971 9968 9965 9963 9961 9960 9959 9957 9955 9953 9951 9949 9946 9944 9942 9939 9937 9935 9933 9932 9930 9927 9924 9922 9920 9916 9912 9907 9903 9898 9894 9890 9889 9891 9893
9934 9938 9940 9941 9942 9945 9950 9954 9955 9956 9957 9958 9960 9961 9962 9964 9966 9968 9971 9974 9977 9980 9982 9983 9984 9985 9988 9991 9991 9988 9987 9986 9985 9984 9983 9983 9982 9983 9982 9980 9976 9970 9966 9967 9967 9965 9963 9963 9961 9959 9956 9953 9951 9949 9947 9946 9945 9943 9941 9939 9937 9935 9932 9930 9928 9926 9923 9921 9920 9918 9916 9913 9911 9908 9905 9902 9898 9894 9890 9886 9883 9879 9878 9880 9882
9917 9920 9923 9924 9924 9926 9931 9935 9938 9939 9939 9940 9943 9944 9944 9946 9948 9949 9952 9955 9958 9960 9963 9965 9966 9968 9971 9974 9974 9971 9969 9970 9970 9969 9970 9969 9969 9969 9966 9960 9955 9953 9954 9955 9953 9950 9949 9949 9947 9944 9942 9940 9937 9935 9934 9933 9932 9931 9928 9926 9924 9921 9919 9917 9915 9913 9910 9908 9906 9905 9903 9900 9897 9894 9891 9889 9885 9881 9876 9872 9870 9870 9870 9870 9869
9901 9903 9905 9907 9908 9910 9914 9917 9920 9922 9923 9924 9926 9928 9928 9929 9930 9932 9935 9938 9940 9943 9945 9948 9950 9952 9955 9957 9955 9953 9953 9954 9956 9956 9956 9954 9953 9950 9946 9942 9941 9942 9943 9941 9939 9937 9935 9934 9932 9930 9928 9927 9925 9923 9921 9920 9919 9917 9915 9913 9910 9908 9906 9904 9902 9900 9898 9896 9894 9892 9890 9887 9884 9880 9877 9874 9871 9868 9864 9860 9858 9860 9862 9860 9856
9887 9888 9890 9891 9893 9896 9899 9901 9904 9906 9908 9909 9910 9912 9913 9915 9916 9917 9919 9921 9923 9927 9930 9933 9936 9937 9939 9939 9938 9937 9937 9939 9941 9942 9940 9937 9935 9932 9930 9930 9930 9930 9928 9927 9925 9924 9922 9920 9918 9917 9915 9914 9912 9911 9909 9907 9905 9903 9901 9899 9896 9895 9894 9892 9890 9887 9885 9884 9882 9880 9878 9875 9872 9867 9863 9860 9857 9854 9851 9849 9848 9849 9851 9850 9845
9876 9876 9877 9878 9880 9883 9885 9887 9889 9891 9894 9896 9896 9897 9899 9901 9902 9904 9905 9907 9910 9913 9916 9919 9921 9923 9923 9923 9923 9922 9922 9924 9926 9925 9922 9919 9918 9917 9918 9918 9917 9915 9914 9913 9911 9911 9909 9907 9905 9903 9902 9900 9899 9897 9895 9893 9891 9889 9887 9884 9883 9882 9882 9880 9878 9876 9873 9871 9870 9868 9866 9863 9860 9856 9851 9846 9842 9840 9839 9839 9839 9839 9838 9837 9834
9865 9866 9866 9866 9868 9870 9873 9875 9876 9877 9878 9881 9883 9884 9886 9888 9889 9891 9893 9895 9897 9900 9902 9904 9907 9908 9909 9909 9908 9908 9908 9908 9908 9908 9907 9905 9904 9904 9904 9903 9902 9901 9900 9900 9899 9898 9897 9895 9892 9890 9888 9887 9884 9882 9880 9879 9877 9875 9873 9871 9870 9870 9869 9868 9867 9864 9862 9860 9858 9856 9854 9851 9848 9844 9839 9834 9829 9827 9826 9827 9828 9827 9826 9824 9821
9853 9855 9855 9855 9856 9858 9861 9863 9864 9864 9866 9868 9870 9872 9874 9875 9876 9878 9881 9882 9884 9886 9887 9890 9892 9893 9894 9894 9894 9894 9894 9893 9893 9893 9893 9891 9890 9889 9889 9888 9888 9888 9888 9887 9886 9885 9883 9881 9879 9877 9874 9872 9870 9868 9866 9865 9863 9862 9860 9859 9859 9858 9857 9856 9855 9853 9851 9849 9846 9844 9843 9840 9836 9832 9827 9823 9819 9817 9816 9817 9816 9815 9814 9813 9810
9839 9841 9842 9843 9845 9847 9849 9851 9851 9852 9854 9856 9857 9859 9861 9863 9864 9866 9867 9868 9870 9871 9873 9875 9876 9877 9878 9880 9881 9881 9880 9879 9879 9879 9878 9877 9876 9875 9875 9875 9875 9875 9874 9873 9871 9870 9868 9866 9864 9863 9860 9858 9856 9854 9853 9851 9850 9849 9848 9847 9846 9846 9845 9844 9843 9842 9841 9839 9836 9833 9830 9828 9824 9820 9815 9811 9809 9807 9807 9807 9805 9803 9802 9801 9799
9825 9826 9828 9829 9831 9833 9835 9837 9838 9839 9841 9842 9844 9846 9848 9849 9851 9852 9853 9854 9856 9857 9859 9860 9861 9862 9865 9867 9866 9865 9864 9864 9865 9866 9864 9863 9862 9862 9861 9861 9861 9861 9860 9858 9857 9855 9853 9852 9850 9849 9847 9845 9842 9841 9840 9839 9837 9836 9835 9834 9833 9833 9832 9832 9831 9830 9829 9828 9824 9821 9818 9815 9811 9808 9804 9801 9799 9798 9797 9797 9795 9793 9791 9790 9789
9813 9814 9815 9817 9818 9819 9821 9823 9824 9825 9827 9828 9830 9832 9833 9834 9837 9838 9840 9841 9843 9844 9846 9847 9848 9850 9851 9850 9849 9849 9850 9851 9852 9851 9850 9849 9849 9848 9848 9848 9848 9846 9845 9844 9843 9841 9840 9838 9836 9834 9833 9831 9830 9829 9828 9827 9825 9824 9823 9822 9820 9820 9820 9820 9819 9818 9817 9816 9813 9810 9807 9803 9799 9796 9794 9791 9789 9788 9788 9786 9785 9783 9781 9780 9779
9802 9803 9804 9806 9807 9807 9809 9810 9811 9813 9814 9815 9817 9818 9820 9821 9824 9825 9827 9828 9829 9831 9833 9835 9835 9836 9835 9834 9835 9837 9838 9838 9838 9837 9836 9835 9835 9835 9835 9835 9833 9832 9832 9831 9829 9828 9826 9824 9823 9821 9820 9819 9818 9817 9816 9815 9813 9812 9811 9810 9809 9808 9808 9808 9808 9806 9805 9804 9801 9798 9795 9791 9787 9786 9784 9782 9780 9778 9777 9776 9775 9773 9772 9771 9771
9792 9792 9793 9795 9796 9797 9798 9799 9800 9801 9803 9804 9805 9807 9808 9809 9811 9813 9814 9815 9816 9817 9819 9820 9820 9820 9820 9821 9824 9825 9824 9823 9823 9823 9822 9822 9822 9822 9822 9821 9820 9820 9819 9818 9817 9815 9813 9812 9811 9809 9808 9808 9807 9805 9804 9803 9802 9801 9800 9799 9798 9798 9797 9796 9796 9794 9792 9791 9790 9787 9783 9780 9777 9776 9775 9773 9770 9769 9768 9766 9765 9763 9762 9762 9762
9781 9781 9782 9784 9784 9786 9787 9788 9789 9790 9791 9792 9793 9794 9795 9796 9797 9798 9800 9801 9802 9803 9804 9804 9805 9806 9808 9809 9810 9810 9809 9809 9809 9808 9808 9808 9808 9808 9809 9808 9807 9807 9806 9805 9804 9803 9802 9801 9800 9799 9797 9796 9795 9794 9793 9792 9791 9790 9790 9789 9788 9787 9786 9784 9783 9782 9781 9780 9777 9774 9772 9770 9768 9768 9767 9764 9761 9760 9759 9758 9756 9754 9752 9752 9753
9771 9771 9772 9773 9774 9774 9775 9777 9778 9779 9780 9781 9782 9783 9783 9784 9785 9786 9788 9789 9790 9791 9791 9792 9793 9794 9795 9795 9795 9796 9795 9795 9795 9795 9796 9796 9796 9796 9795 9795 9794 9794 9794 9793 9792 9791 9790 9789 9788 9787 9786 9786 9784 9783 9783 9782 9781 9780 9779 9778 9777 9775 9774 9773 9772 9771 9770 9768 9765 9763 9761 9760 9759 9759 9759 9756 9753 9751 9750 9749 9748 9746 9744 9743 9745
9762 9762 9763 9764 9764 9765 9766 9766 9767 9768 9769 9770 9772 9772 9773 9774 9775 9776 9777 9778 9779 9779 9780 9781 9781 9782 9782 9782 9782 9783 9783 9783 9783 9784 9784 9784 9784 9783 9783 9782 9782 9782 9781 9780 9780 9779 9778 9777 9777 9776 9775 9774 9773 9773 9772 9771 9770 9769 9768 9767 9766 9764 9763 9762 9762 9761 9759 9757 9754 9752 9752 9751 9750 9750 9749 9747 9745 9743 9741 9740 9739 9738 9736 9736 9737
9752 9753 9754 9754 9755 9756 9757 9757 9758 9759 9759 9760 9761 9762 9763 9763 9764 9765 9766 9766 9767 9768 9769 9769 9769 9769 9770 9770 9770 9771 9771 9771 9771 9772 9772 9772 9772 9772 9771 9770 9770 9769 9769 9768 9768 9767 9766 9766 9765 9764 9763 9763 9762 9761 9761 9760 9759 9758 9757 9756 9755 9754 9753 9752 9752 9750 9748 9746 9744 9743 9742 9741 9740 9740 9740 9738 9736 9735 9733 9732 9731 9730 9728 9728 9729